This demonstration page uses our WeatherBlox Daily Observations layout. Learn more.

Left ArrowRight Arrow

44.89941, -97.11507

Hourly Observations for June 2, 2016

Temp ( °F °C ) Dew Point ( °F °C ) Humidity (%) Winds ( mph kmh ) Pressure ( in mb ) Visibility ( mi km ) Precip ( " mm )
12:53 am 00:53 Clear 52 11.1 45 7.2 77 77 WNW 7 11 30.05 1018 10 16 0.00 0.00
1:53 am 01:53 Clear 47 8.3 43 6.1 86 86 WSW 7 11 30.05 1018 10 16 0.00 0.00
2:53 am 02:53 Clear 46 7.8 43 6.1 89 89 WSW 8 13 30.06 1018 10 16 0.00 0.00
3:53 am 03:53 Clear 46 7.8 42 5.6 86 86 WSW 8 13 30.07 1018 10 16 0.00 0.00
4:53 am 04:53 Clear 45 7.2 42 5.6 90 90 WSW 8 13 30.08 1019 10 16 0.00 0.00
5:53 am 05:53 Sunny 45 7.2 42 5.6 90 90 Calm 30.08 1019 10 16 0.00 0.00
6:53 am 06:53 Sunny 50 10 46 7.8 86 86 Calm 30.08 1019 10 16 0.00 0.00
7:53 am 07:53 Sunny 53 11.7 48 8.9 83 83 NE 3 6 30.07 1018 10 16 0.00 0.00
8:53 am 08:53 Sunny 56 13.3 46 7.8 70 70 Calm 30.07 1018 10 16 0.00 0.00
9:53 am 09:53 Sunny 61 16.1 47 8.3 60 60 S 6 9 30.07 1018 10 16 0.00 0.00
10:53 am 10:53 Partly Cloudy 65 18.3 42 5.6 43 43 SSE 8 13 30.07 1018 10 16 0.00 0.00
11:53 am 11:53 Partly Cloudy 67 19.4 42 5.6 41 41 SSW 6 9 30.06 1018 10 16 0.00 0.00
12:53 pm 12:53 Sunny 70 21.1 43 6.1 38 38 S 5 7 30.04 1017 10 16 0.00 0.00
1:53 pm 13:53 Sunny 72 22.2 44 6.7 37 37 S 7 11 30.02 1017 10 16 0.00 0.00
2:53 pm 14:53 Sunny 74 23.3 45 7.2 36 36 S 8 13 30.01 1016 10 16 0.00 0.00
3:53 pm 15:53 Sunny 76 24.4 45 7.2 33 33 S 10 17 29.98 1015 10 16 0.00 0.00
4:53 pm 16:53 Sunny 76 24.4 47 8.3 36 36 SSW 8 13 29.97 1015 10 16 0.00 0.00
5:53 pm 17:53 Sunny 76 24.4 49 9.4 39 39 S 9 15 29.95 1014 10 16 0.00 0.00
6:53 pm 18:53 Sunny 75 23.9 50 10 41 41 S 12 19 29.93 1014 10 16 0.00 0.00
7:53 pm 19:53 Sunny 74 23.3 52 11.1 46 46 SSE 9 15 29.92 1013 10 16 0.00 0.00
8:53 pm 20:53 Sunny 71 21.7 52 11.1 51 51 SE 6 9 29.91 1013 10 16 0.00 0.00
9:53 pm 21:53 Clear 70 21.1 52 11.1 53 53 ESE 6 9 29.91 1013 10 16 0.00 0.00
10:53 pm 22:53 Clear 69 20.6 52 11.1 55 55 ESE 7 11 29.90 1013 10 16 0.00 0.00
11:53 pm 23:53 Clear 67 19.4 48 8.9 51 51 ESE 9 15 29.90 1013 10 16 0.00 0.00

Powered by AerisWeather